User: anonymous   Login
Location: Caltech
(34.1382°N, 118.1253°W)
Time: 17:27:14
(UTC-07:00)
Language:

Cosmos 2333 Rocket - Orbit

View from above orbital plane
View from above orbital plane
View from above satellite
View from above satellite

Ground track
Ground track

The orbit data is extracted from the following two-line orbital elements,

1 24298U 96051B   17234.72024543 -.00000064  00000-0 -83973-5 0  9997
2 24298  70.8492 281.8994 0013046  86.5476 273.7136 14.12495429 81210
Epoch (UTC): 22 August 2017 17:17:09
Eccentricity: 0.0013046
inclination: 70.8492°
perigee height: 841 km
apogee height: 860 km
right ascension of ascending node: 281.8994°
argument of perigee: 86.5476°
revolutions per day: 14.12495429
mean anomaly at epoch: 273.7136°
orbit number at epoch: 8121

The dashed part of the orbit path shows where the satellite is in the earth's shadow,  

DLR